Change the Weather History Date:

Friday, May 30, 2014

  Actual Average Record
Temperature  
Mean Temperature 67 °F 61 °F  
Max Temperature 77 °F 79 °F 96 °F (2000)
Min Temperature 56 °F 43 °F 30 °F (2006)
Degree Days  
Heating Degree Days 0 5  
Month to date heating degree days 283 263  
Since 1 July heating degree days 6756 6560  
Cooling Degree Days 2 1  
Month to date cooling degree days 11 4  
Year to date cooling degree days 11 4  
Growing Degree Days 17 (Base 50)    
Moisture  
Dew Point 45 °F    
Average Humidity 53    
Maximum Humidity 80    
Minimum Humidity 26    
Precipitation  
Precipitation 0.02 in 0.05 in 0.31 in (1917)
Month to date precipitation 1.66 1.46  
Year to date precipitation 4.49 5.37  
Sea Level Pressure  
Sea Level Pressure 29.96 in    
Wind  
Wind Speed 8 mph (NW)    
Max Wind Speed 22 mph    
Max Gust Speed 28 mph    
Visibility 10 miles    
Events Rain    
T = Trace of Precipitation, MM = Missing Value Source: NWS Daily Summary

Daily Weather History Graph

Daily Weather History Graph

Search for Another Location

Airport or City:

Trip Planner

Search our weather history database for the weather conditions in past years. The results will help you decide how hot, cold, wet, or windy it might be!

Date:

Astronomy

May. 30, 2014 Rise Set
Actual Time 5:46 AM MDT 8:30 PM MDT
Civil Twilight 5:14 AM MDT 9:02 PM MDT
Nautical Twilight 4:35 AM MDT 9:42 PM MDT
Astronomical Twilight 3:50 AM MDT 10:27 PM MDT
Moon 7:32 AM MDT (5/30) 10:10 PM MDT (5/30)
Length of Visible Light 15h 47m
Length of Day
14h 44m
Waxing Crescent, 4% of the Moon is Illuminated
May 30
Waxing Crescent
Jun 5
First Quarter
Jun 12
Full
Jun 19
Last Quarter
Jun 27
New

Hourly Weather History & Observations

Time (MDT) Temp. Dew Point Humidity Pressure Visibility Wind Dir Wind Speed Gust Speed Precip Events Conditions
12:53 AM 64.9 °F 42.1 °F 43% 29.91 in 10.0 mi West 3.5 mph - N/A   Overcast
1:53 AM 64.9 °F 39.9 °F 40% 29.91 in 10.0 mi West 8.1 mph - N/A   Overcast
2:53 AM 66.0 °F 37.9 °F 36% 29.91 in 10.0 mi West 15.0 mph - N/A   Overcast
3:53 AM 64.9 °F 39.9 °F 40% 29.93 in 10.0 mi West 16.1 mph - 0.00 in   Mostly Cloudy
4:53 AM 63.0 °F 43.0 °F 48% 29.96 in 10.0 mi West 10.4 mph 21.9 mph N/A   Overcast
6:53 AM 59.0 °F 45.0 °F 60% 30.00 in 10.0 mi West 12.7 mph - N/A   Overcast
7:53 AM 57.0 °F 48.0 °F 72% 30.03 in 10.0 mi West 9.2 mph - 0.00 in Rain Light Rain
8:53 AM 57.0 °F 51.1 °F 81% 30.06 in 10.0 mi West 3.5 mph - 0.00 in Rain Light Rain
9:53 AM 57.9 °F 51.1 °F 78% 30.06 in 10.0 mi ESE 4.6 mph - 0.00 in   Overcast
10:53 AM 57.9 °F 53.1 °F 84% 30.06 in 10.0 mi ENE 6.9 mph - 0.02 in Rain Light Rain
12:53 PM 64.9 °F 48.9 °F 56% 30.04 in 10.0 mi East 5.8 mph - N/A   Clear
1:53 PM 69.1 °F 45.0 °F 42% 29.99 in 10.0 mi East 6.9 mph - N/A   Clear
4:53 PM 77.0 °F 39.9 °F 26% 29.88 in 10.0 mi North 8.1 mph - N/A   Clear
5:53 PM 77.0 °F 39.9 °F 26% 29.87 in 10.0 mi Variable 4.6 mph - N/A   Clear
6:53 PM 75.9 °F 39.9 °F 27% 29.86 in 10.0 mi NE 4.6 mph - N/A   Clear
7:53 PM 73.0 °F 43.0 °F 34% 29.89 in 10.0 mi East 3.5 mph - N/A   Clear
8:53 PM 66.0 °F 45.0 °F 47% 29.92 in 10.0 mi East 4.6 mph - N/A   Clear
9:53 PM 61.0 °F 48.0 °F 62% 29.95 in 10.0 mi Calm Calm - N/A   Partly Cloudy
10:53 PM 64.0 °F 45.0 °F 50% 29.98 in 10.0 mi NW 13.8 mph - N/A   Clear
11:53 PM 61.0 °F 46.0 °F 58% 30.00 in 10.0 mi West 5.8 mph - N/A   Clear